Regional Weather Roundup
Issued by NWS

Home | Current Version | Previous Version | Text Only | Print | Product List | Glossary Off
Versions: 1 2 3 4 5 6 7 8 9 10 11 12 13 14 15 16 17 18 19 20 21 22 23 24 25 26 27 28 29 30 31 32 33 34 35 36 37 38 39 40 41 42 43 44 45 46 47 48 49 50

654
ASUS43 KLOT 011403
RWRIL

ILLINOIS REGIONAL WEATHER ROUNDUP
NATIONAL WEATHER SERVICE CHICAGO/ROMEOVILLE IL
800 AM CST WED MAR 01 2017

NOTE: "FAIR" INDICATES FEW OR NO CLOUDS BELOW 12,000 FEET WITH NO
SIGNIFICANT WEATHER AND/OR OBSTRUCTIONS TO VISIBILITY.

* THESE STATIONS ARE NOT UNDER NWS QUALITY CONTROL. THEY ALSO MAY NOT
  REPORT WEATHER SUCH AS PRECIPITATION OR FOG.

ILZ001-002-007-009-015-016-024-011500-
NORTHWEST ILLINOIS

CITY           SKY/WX    TMP DP  RH WIND       PRES   REMARKS
MOLINE         CLOUDY    39  35  86 W23G35    29.64R WCI  28
STERLING*      LGT RAIN  42  40  92 W14       29.57R
SAVANNA*       CLOUDY    39  37  93 NW10G18   29.59R WCI  32
$$

ILZ003-004-008-010-011-017-018-011500-
NORTH CENTRAL ILLINOIS

CITY           SKY/WX    TMP DP  RH WIND       PRES   REMARKS
ROCKFORD       LGT RAIN  39  37  92 NW13      29.55R FOG     WCI  31
FREEPORT*      LGT RAIN  37  36  96 NW14G20   29.56R WCI  29
ROCHELLE*      DRIZZLE   39  39 100 NW14G20   29.54R WCI  31
DE KALB*       DRZL/FOG  40  40  99 NW16      29.50R VSB 1
PERU*          CLOUDY    42  40  91 W17G29    29.55R FOG
$$

ILZ005-006-012>014-019>023-011500-
NORTHEAST ILLINOIS

CITY           SKY/WX    TMP DP  RH WIND       PRES   REMARKS
CHICAGO-OHARE  DRZL/FOG  42  40  92 NW8       29.46R VSB 1/4
CHICAGO-MIDWAY CLOUDY    41  39  93 N6        29.46S FOG
AURORA         FOG       44  43  96 W14       29.49R VSB 1/2
LANSING*       FOG       40  40 100 N3        29.47R VSB 3/4
WAUKEGAN       CLOUDY    37  36  96 N8        29.46S FOG     WCI  31
DUPAGE AIRPORT FOG       42  41  96 CALM      29.47R VSB 1/4
KANKAKEE*      CLOUDY    49  48  95 W22G29    29.51R FOG
WHEELING       CLOUDY    39  38  96 NW9       29.47S FOG     WCI  33
MORRIS*        CLOUDY    46  45  96 W26G33    29.49R FOG
ROMEOVILLE*    DRZL/FOG  44  44 100 CALM      29.48R VSB 1/2
NORTHERLY ISL    N/A     38  37  97 MISG        N/A
$$

LMZ740>746-011500-
SOUTHERN LAKE MICHIGAN

STATION/POSITION SKY/WX   TEMP    WIND        PRES    VSBY  WAVE
                          AIR SEA DIR/SP/G                  HT/PER
                          (F)     (DEG/KT/KT) (MB)    (MI)  (FT/S)
HARRISON CRIB              37     340/ 16/ 18   N/A
BURNHAM HARBOR             38     360/  7/ 12   N/A
CALUMET HARBOR             38     330/ 12/ 16  997.3S
BURNS HARBOR               37     280/  8/ 11  998.6R
MICHIGAN CITY              36     230/ 11/ 11   N/A
$$

ILZ025>027-034>036-040-047-049-050-058-095>099-011500-
WEST-CENTRAL ILLINOIS

CITY           SKY/WX    TMP DP  RH WIND       PRES   REMARKS
QUINCY         CLOUDY    42  38  85 W14G25    29.76R
GALESBURG*     CLOUDY    39  37  93 W20G29    29.67R WCI  29
MACOMB*        CLOUDY    41  38  90 W30       29.72R
JACKSONVILLE*  CLOUDY    44  40  87 W21G28    29.73R
PITTSFIELD*    CLOUDY    44  39  83 W20G29    29.77R
$$

ILZ028>032-037-038-041>044-048-051>054-059>061-011500-
CENTRAL ILLINOIS

CITY           SKY/WX    TMP DP  RH WIND       PRES   REMARKS
PONTIAC        CLOUDY    45  45  99 W21G32    29.57R FOG
BLOOMINGTON    CLOUDY    42  40  92 W26G35    29.59R
DECATUR        CLOUDY    48  44  86 W24G33    29.64R
PEORIA         CLOUDY    42  40  92 W20G30    29.63R
LACON*         CLOUDY    42  41  96 W14G23    29.59R
LINCOLN*       CLOUDY    45  43  93 W9G22     29.65R
SPRINGFIELD    CLOUDY    46  42  86 W18G28    29.68R FOG
TAYLORVILLE    CLOUDY    45  44  94 W24G31    29.69R FOG
$$

ILZ033-039-045-046-055>057-062-063-011500-
EAST-CENTRAL ILLINOIS

CITY           SKY/WX    TMP DP  RH WIND       PRES   REMARKS
CHAMPAIGN      CLOUDY    49  45  86 W28G33    29.59R FOG
RANTOUL*       CLOUDY    51  47  88 W28G35    29.57R
MATTOON        CLOUDY    53  51  93 W18G28    29.60R
PARIS*         CLOUDY    54  51  87 W23G33    29.59R
$$

ILZ079-100>102-011500-
SOUTHWEST ILLINOIS

CITY           SKY/WX    TMP DP  RH WIND       PRES   REMARKS
BELLEVILLE     CLOUDY    51  46  85 W17G26    29.74R
CAHOKIA*       CLOUDY    49  42  77 W20G30    29.77R
SPARTA*        CLOUDY    52  46  81 W16G29    29.75R
$$

ILZ064>066-069>071-074>076-080>082-084>086-088>090-092>094-011500-
SOUTH-CENTRAL ILLINOIS

CITY           SKY/WX    TMP DP  RH WIND       PRES   REMARKS
CARBONDALE     PTSUNNY   56  51  84 W22G30    29.72R
CAIRO*         SUNNY     59  54  83 W10G17    29.75R
EFFINGHAM*     CLOUDY    54  51  89 W24       29.65R
MARION         MOSUNNY   59  57  94 W9G18     29.71R
MT. VERNON     CLOUDY    55  49  80 W12G25    29.70
CENTRALIA*     CLOUDY    54  49  84 W29G35    29.70R
SALEM*         CLOUDY    54  47  77 W25G32    29.68R
METROPOLIS*    SUNNY     60  56  86 W9        29.74R
$$

ILZ067-068-072-073-078-083-087-091-011500-
SOUTHEAST ILLINOIS

CITY           SKY/WX    TMP DP  RH WIND       PRES   REMARKS
LAWRENCEVILLE  PTSUNNY   57  52  83 W16       29.62R
FLORA*         PTSUNNY   57  51  80 W24       29.65R
FAIRFIELD*     MOSUNNY   56  52  85 W8        29.67R
HARRISBURG*    SUNNY     58  53  84 W16G22    29.69R
ROBINSON*      MOSUNNY   55  51  85 W21G28    29.61R
$$

ABBREVIATIONS USED IN REMARKS
   TC - TEMPERATURE IN CELSIUS
  WCI - WIND CHILL INDEX
   HX - HEAT INDEX
  VSB - VISIBILITY
$$





USA.gov is the U.S. government's official web portal to all federal, state and local government web resources and services.